[[{"header":{"parameterUnit":"m.s-1","parameterCategory":1,"la1":30.2991,"la2":30.254,"lo1":-89.0895,"lo2":-89.0444,"dy":0.0017,"dx":0.0017,"nx":28,"ny":28,"refTime":"2024-05-07T03:00:00:Z","depth":0,"parameterNumber":2,"parameterNumberName":"U-component_of_WINDS"},"data":[0,0,0,0,0,0,0,0,0,0,0,0,0,0,0,0,0,0,0,0,0,0,0,0,0,0,0,0,0,0,0,0,0,0,0,0,0,0,0,0,0,0,0,0,0,0,0,0,0,0,0,0,0,0,0,0,0,0,-0.1257,-0.1257,0,-0.1249,-0.1249,-0.1249,-0.1262,-0.1262,-0.1263,-0.1263,-0.1255,-0.1254,-0.1253,0,0,0,0,0,0,0,0,0,0,0,0,0,-0.1284,-0.1284,-0.1257,-0.1257,-0.1257,-0.1249,-0.1249,-0.1249,-0.1262,-0.1262,-0.1263,-0.1263,-0.1255,-0.1254,-0.1253,0,0,0,0,0,0,0,0,0,0,0,0,0,-0.1274,-0.1283,-0.1257,-0.1263,-0.1263,-0.1249,-0.1249,-0.1249,-0.1262,-0.1262,-0.1263,-0.1264,-0.1255,-0.1254,-0.1253,-0.1234,0,0,-0.125,-0.125,0,0,0,0,0,0,0,0,-0.1275,-0.1273,-0.1262,-0.1262,-0.1263,-0.1257,-0.1255,-0.1244,-0.1262,-0.1262,-0.1263,-0.1264,-0.1255,-0.1254,-0.1251,-0.1233,-0.1233,-0.125,-0.1249,-0.1249,-0.1249,0,0,0,0,0,0,0,-0.1275,-0.1273,-0.1254,-0.1262,-0.1262,-0.1265,-0.1265,-0.1253,-0.1255,-0.1262,-0.1263,-0.1262,-0.1255,-0.1252,-0.1251,-0.1233,-0.125,-0.1249,-0.1249,-0.1248,-0.12,-0.12,0,0,0,0,0,0,-0.1275,-0.1274,-0.1254,-0.1254,-0.127,-0.1264,-0.1264,-0.1258,-0.1255,-0.1255,-0.1261,-0.1263,-0.1253,-0.1252,-0.1251,-0.1229,-0.1249,-0.1248,-0.1248,-0.1201,-0.12,-0.1199,0,0,0,0,0,0,-0.1276,-0.1273,-0.1255,-0.1264,-0.1262,-0.1263,-0.1257,-0.1258,-0.1254,-0.1254,-0.1255,-0.1258,-0.1254,-0.1252,-0.1238,-0.1228,-0.1248,-0.1247,-0.1202,-0.1201,-0.12,-0.1184,0,0,0,0,0,0,-0.1277,-0.1273,-0.1266,-0.1264,-0.1261,-0.1242,-0.1257,-0.1257,-0.1253,-0.1254,-0.1251,-0.1251,-0.1254,-0.124,-0.1237,-0.1227,-0.1246,-0.1203,-0.1201,-0.12,-0.1185,-0.1182,-0.118,0,0,0,0,0,-0.1277,-0.1262,-0.1266,-0.1263,-0.1252,-0.1242,-0.124,-0.1244,-0.1252,-0.1245,-0.1245,-0.1251,-0.123,-0.1238,-0.1235,-0.1225,-0.1203,-0.1202,-0.12,-0.1186,-0.1183,-0.118,0,0,0,0,0,0,-0.1262,-0.1261,-0.1266,-0.1249,-0.1245,-0.1244,-0.1235,-0.124,-0.1234,-0.1236,-0.124,-0.124,-0.1225,-0.1224,-0.1233,-0.1207,-0.1218,-0.1216,-0.1208,-0.1205,-0.1202,-0.1203,-0.1245,0,0,0,0,0,-0.1257,-0.1248,-0.1248,-0.1233,-0.1231,-0.1233,-0.1229,-0.1232,-0.1228,-0.1227,-0.1226,-0.1222,-0.1215,-0.121,-0.1203,-0.1185,-0.1185,-0.1177,-0.1174,-0.1172,-0.117,-0.1162,-0.1158,-0.1194,-0.1194,-0.1194,0,0,-0.1246,-0.1244,-0.1238,-0.123,-0.1228,-0.1219,-0.1232,-0.1222,-0.1216,-0.1225,-0.1213,-0.1212,-0.1208,-0.1193,-0.1186,-0.1191,-0.116,-0.117,-0.1168,-0.1168,-0.116,-0.1156,-0.1153,-0.1193,-0.1193,-0.1193,0,0,-0.1221,-0.1219,-0.1207,-0.1204,-0.1201,-0.1202,-0.1199,-0.1197,-0.1197,-0.1185,-0.1192,-0.1185,-0.1172,-0.1169,-0.1166,-0.1141,-0.1147,-0.1139,-0.1125,-0.1117,-0.1114,-0.1111,-0.1103,-0.11,-0.1137,-0.1137,-0.1137,0,-0.1208,-0.1195,-0.1199,-0.1189,-0.1186,-0.1195,-0.1183,-0.118,-0.1174,-0.1172,-0.1178,-0.1162,-0.116,-0.1145,-0.1139,-0.1136,-0.1133,-0.1139,-0.1114,-0.1112,-0.1109,-0.1102,-0.1099,-0.1136,-0.1136,-0.1136,-0.1136,0,-0.1179,-0.117,-0.1161,-0.1156,-0.1151,-0.114,-0.1143,-0.1138,-0.1142,-0.1143,-0.113,-0.1128,-0.1121,-0.1118,-0.1121,-0.1103,-0.1107,-0.1113,-0.1124,-0.1105,-0.1098,-0.1095,-0.1135,-0.1135,-0.1135,-0.1136,0,0,-0.1144,-0.1143,-0.1139,-0.1137,-0.1135,-0.1128,-0.1117,-0.1111,-0.1107,-0.1103,-0.1095,-0.1084,-0.109,-0.1087,-0.109,-0.1083,-0.1064,-0.109,-0.109,-0.1086,-0.1045,-0.104,-0.1037,-0.1068,-0.1068,-0.1067,-0.1045,0,-0.1121,-0.1103,-0.1107,-0.109,-0.1082,-0.1091,-0.1082,-0.108,-0.108,-0.1074,-0.1075,-0.1068,-0.1076,-0.1074,-0.1067,-0.1068,-0.1056,-0.107,-0.1061,-0.1061,-0.1062,-0.1033,-0.1028,-0.1008,-0.1043,-0.1042,-0.1042,0,-0.1091,-0.1086,-0.1068,-0.1068,-0.1064,-0.1056,-0.1052,-0.1045,-0.1043,-0.1044,-0.104,-0.1045,-0.1036,-0.1047,-0.1033,-0.1042,-0.1039,-0.1039,-0.1038,-0.1038,-0.105,-0.1033,-0.1001,-0.0998,-0.1037,-0.1038,-0.1038,0,-0.1068,-0.1058,-0.1046,-0.1044,-0.1042,-0.1037,-0.1036,-0.1034,-0.103,-0.1026,-0.1024,-0.1018,-0.1015,-0.1011,-0.1014,-0.1022,-0.1001,-0.1012,-0.1002,-0.1002,-0.0997,-0.0998,-0.0966,-0.0994,-0.0994,-0.0994,-0.0994,0,-0.1042,-0.1031,-0.1036,-0.1029,-0.1017,-0.1022,-0.101,-0.101,-0.1008,-0.1001,-0.1008,-0.1002,-0.1006,-0.1,-0.1003,-0.0992,-0.099,-0.0991,-0.0992,-0.0991,-0.0991,-0.0989,-0.0991,-0.0994,-0.0994,-0.0994,-0.0994,0,-0.1015,-0.1018,-0.1006,-0.1006,-0.1005,-0.0997,-0.0997,-0.099,-0.0992,-0.0983,-0.0981,-0.0984,-0.0977,-0.098,-0.0973,-0.0974,-0.0961,-0.0963,-0.0962,-0.0963,-0.0953,-0.0954,-0.0919,-0.0915,-0.0945,-0.0945,-0.0945,0,-0.0998,-0.099,-0.0989,-0.0985,-0.0984,-0.0978,-0.0974,-0.0979,-0.0975,-0.0972,-0.0966,-0.096,-0.0955,-0.0944,-0.0945,-0.094,-0.0943,-0.0931,-0.0942,-0.0941,-0.0943,-0.0944,-0.0944,-0.0929,-0.0928,-0.0928,-0.0928,0,-0.0968,-0.097,-0.0965,-0.0961,-0.0956,-0.0953,-0.095,-0.0946,-0.0951,-0.0946,-0.094,-0.0936,-0.0929,-0.0923,-0.0919,-0.0918,-0.0924,-0.0924,-0.0922,-0.0921,-0.092,-0.0921,-0.0956,-0.0925,-0.0925,-0.0925,-0.0926,-0.0926,-0.0946,-0.094,-0.0939,-0.0933,-0.0931,-0.0929,-0.0923,-0.0924,-0.0919,-0.0914,-0.0917,-0.0909,-0.0907,-0.0902,-0.0901,-0.0895,-0.09,-0.0896,-0.0895,-0.0894,-0.0893,-0.0921,-0.0894,-0.0894,-0.0894,-0.0894,-0.0894,0,-0.0918,-0.0918,-0.0912,-0.0908,-0.0904,-0.091,-0.0907,-0.0903,-0.0896,-0.0894,-0.089,-0.0883,-0.0877,-0.0878,-0.0873,-0.0869,-0.0871,-0.0867,-0.0868,-0.0868,-0.0889,-0.0892,-0.0865,-0.0865,-0.0865,-0.0865,-0.0865,-0.0865,-0.0902,-0.0892,-0.0894,-0.0883,-0.0883,-0.0876,-0.0874,-0.0872,-0.087,-0.0862,-0.0858,-0.0858,-0.0858,-0.0853,-0.0848,-0.0849,-0.0847,-0.0842,-0.0843,-0.0863,-0.0866,-0.0869,-0.0872,-0.0841,-0.0841,-0.0823,-0.0823,-0.0823]},{"header":{"parameterUnit":"m.s-1","parameterCategory":1,"la1":30.2991,"la2":30.254,"lo1":-89.0895,"lo2":-89.0444,"dy":0.0017,"dx":0.0017,"nx":28,"ny":28,"refTime":"2024-05-07T03:00:00:Z","depth":0,"parameterNumber":3,"parameterNumberName":"V-component_of_WINDS"},"data":[0,0,0,0,0,0,0,0,0,0,0,0,0,0,0,0,0,0,0,0,0,0,0,0,0,0,0,0,0,0,0,0,0,0,0,0,0,0,0,0,0,0,0,0,0,0,0,0,0,0,0,0,0,0,0,0,0,0,5.428,5.428,0,5.4256,5.4256,5.4256,5.416,5.4158,5.4156,5.4153,5.413,5.4131,5.4133,0,0,0,0,0,0,0,0,0,0,0,0,0,5.4244,5.4245,5.428,5.428,5.428,5.4256,5.4256,5.4256,5.416,5.4158,5.4155,5.4152,5.413,5.4131,5.4133,0,0,0,0,0,0,0,0,0,0,0,0,0,5.4244,5.4246,5.4281,5.4229,5.4225,5.4256,5.4256,5.4256,5.4161,5.4158,5.4154,5.4151,5.4129,5.4131,5.4133,5.4213,0,0,5.414,5.4141,0,0,0,0,0,0,0,0,5.4244,5.4245,5.4237,5.4233,5.4228,5.4208,5.4234,5.4241,5.4162,5.4185,5.4153,5.415,5.4159,5.4158,5.4161,5.4212,5.4211,5.414,5.4141,5.4142,5.4143,0,0,0,0,0,0,0,5.4244,5.4246,5.4271,5.4237,5.4231,5.4208,5.4204,5.4235,5.4191,5.4183,5.4176,5.4174,5.4155,5.4159,5.416,5.421,5.414,5.4142,5.4143,5.4144,5.4323,5.4327,0,0,0,0,0,0,5.4251,5.4247,5.4272,5.427,5.4228,5.4211,5.4207,5.4217,5.419,5.4183,5.4177,5.417,5.4157,5.4157,5.4159,5.4248,5.4142,5.4144,5.4145,5.432,5.4324,5.4328,0,0,0,0,0,0,5.4251,5.4255,5.4273,5.4256,5.4257,5.4215,5.4228,5.4219,5.4222,5.4186,5.4177,5.4189,5.4154,5.4155,5.4199,5.4246,5.4145,5.4147,5.4316,5.4321,5.4326,5.4429,0,0,0,0,0,0,5.425,5.4255,5.4285,5.4258,5.4258,5.4314,5.4231,5.4221,5.4226,5.4216,5.4195,5.4188,5.4152,5.4197,5.4202,5.4247,5.4149,5.4311,5.4318,5.4324,5.4422,5.4437,5.4451,0,0,0,0,0,5.4249,5.4316,5.4287,5.429,5.4295,5.4317,5.4317,5.4274,5.423,5.426,5.4236,5.4189,5.4241,5.4202,5.4207,5.4254,5.4308,5.4316,5.4324,5.4415,5.4434,5.4451,0,0,0,0,0,0,5.435,5.4311,5.4279,5.4338,5.4332,5.4301,5.4337,5.4296,5.4302,5.4293,5.4239,5.4235,5.4287,5.4275,5.4233,5.4328,5.4266,5.4276,5.4334,5.4352,5.4367,5.4368,5.4151,0,0,0,0,0,5.4379,5.4401,5.4366,5.4421,5.442,5.4379,5.4387,5.4355,5.4346,5.4342,5.4322,5.4316,5.433,5.4341,5.4352,5.442,5.4413,5.4454,5.4469,5.4481,5.4489,5.4522,5.454,5.4354,5.4353,5.4353,0,0,5.444,5.4421,5.4438,5.4441,5.4432,5.4455,5.4377,5.4406,5.4422,5.4347,5.4386,5.4372,5.4361,5.4416,5.444,5.4408,5.454,5.4491,5.4501,5.4503,5.4532,5.455,5.4566,5.4359,5.4358,5.4357,0,0,5.4561,5.455,5.4594,5.4586,5.4573,5.4545,5.4556,5.4531,5.4518,5.4557,5.4501,5.452,5.4546,5.454,5.4541,5.4659,5.4615,5.4664,5.474,5.4773,5.4788,5.4801,5.4841,5.4856,5.4673,5.4673,5.4673,0,5.4637,5.4669,5.4622,5.4653,5.4655,5.4588,5.4632,5.4627,5.4619,5.4622,5.4586,5.4617,5.4605,5.4658,5.4686,5.469,5.4699,5.4665,5.479,5.4802,5.4813,5.4851,5.4866,5.4679,5.4678,5.4677,5.4677,0,5.4763,5.4786,5.4824,5.4816,5.4823,5.4861,5.4818,5.4831,5.4798,5.4774,5.4814,5.4797,5.4803,5.4814,5.4782,5.4862,5.4842,5.4799,5.4735,5.4838,5.4872,5.4886,5.4687,5.4685,5.4683,5.4682,0,0,5.4947,5.4911,5.4926,5.4921,5.4901,5.4918,5.4952,5.4957,5.4968,5.4965,5.4992,5.5016,5.4975,5.4976,5.4943,5.4972,5.5064,5.4925,5.4924,5.495,5.5149,5.518,5.5197,5.5036,5.5038,5.504,5.5149,0,5.506,5.5116,5.5073,5.5136,5.5156,5.5092,5.5122,5.5113,5.5092,5.5106,5.5082,5.5099,5.5046,5.5045,5.5071,5.5048,5.5103,5.504,5.5059,5.506,5.5062,5.5215,5.5249,5.5352,5.5162,5.5165,5.5166,0,5.52,5.5201,5.5266,5.524,5.5247,5.5275,5.5275,5.5289,5.5278,5.526,5.5261,5.5219,5.5251,5.519,5.5232,5.5189,5.5195,5.5185,5.5187,5.5186,5.5118,5.5216,5.5384,5.5399,5.5187,5.5186,5.5184,0,5.5325,5.5343,5.5383,5.5381,5.5353,5.5374,5.5363,5.5348,5.5353,5.5354,5.5357,5.5362,5.5364,5.5369,5.5331,5.529,5.5377,5.5313,5.5362,5.5363,5.5382,5.5381,5.5551,5.539,5.5389,5.5389,5.5389,0,5.5455,5.5496,5.5439,5.5463,5.5508,5.5459,5.5504,5.5487,5.5474,5.5494,5.5441,5.5461,5.5409,5.5424,5.5394,5.5432,5.5434,5.542,5.5412,5.5424,5.5426,5.5426,5.5417,5.5393,5.5392,5.5391,5.5391,0,5.5601,5.5564,5.5603,5.5573,5.5566,5.56,5.5574,5.5596,5.5571,5.5597,5.56,5.5561,5.5575,5.5538,5.5547,5.5527,5.5581,5.5562,5.5585,5.5578,5.5629,5.5624,5.5803,5.5823,5.5651,5.5653,5.5654,0,5.5685,5.5716,5.5688,5.5697,5.5689,5.5705,5.5709,5.5663,5.567,5.5658,5.5681,5.5691,5.5695,5.5722,5.5694,5.5701,5.568,5.5742,5.568,5.5691,5.5678,5.5676,5.5678,5.5754,5.5756,5.5758,5.576,0,5.5839,5.5818,5.5827,5.5829,5.5836,5.5835,5.5831,5.5842,5.5792,5.5803,5.5816,5.582,5.5828,5.5838,5.5838,5.5827,5.5785,5.5779,5.5791,5.5803,5.5814,5.5806,5.5617,5.5775,5.5774,5.5772,5.5772,5.5771,5.5955,5.5978,5.5961,5.5972,5.5964,5.5961,5.5979,5.5956,5.5966,5.5968,5.5941,5.596,5.5946,5.5942,5.5935,5.5949,5.5921,5.5938,5.5942,5.5946,5.5953,5.5813,5.5949,5.5949,5.5948,5.5948,5.5948,0,5.6103,5.6089,5.61,5.6095,5.6103,5.6062,5.6055,5.6065,5.6082,5.6073,5.6078,5.6093,5.6103,5.6076,5.6081,5.6097,5.6078,5.61,5.6097,5.6095,5.598,5.5968,5.6115,5.6115,5.6115,5.6115,5.6115,5.6115,5.6181,5.6217,5.6195,5.6226,5.6212,5.6229,5.6229,5.6225,5.6217,5.6236,5.6243,5.6225,5.6209,5.6212,5.6219,5.621,5.6214,5.6243,5.6228,5.612,5.6104,5.6088,5.6077,5.6244,5.6244,5.6341,5.6342,5.6343]}]]